STARLINK-32578, 61979

Orbit data source: Space-Track

STARLINK-32578, 61979 is a payload satellite owned by SpaceX/Seattle (US) in LEO that was launched on Thu, 14 Nov 2024 UTC via an FALCON 9 launch vehicle from the Air Force Eastern Test Range (AFETR). Payload-class satellites include a variety of spacecraft equipped with specific instruments for various scientific and technological missions. These include communications satellites like Starlink; space stations such as the ISS; scientific satellites like the Hubble; Earth observation satellites from companies like Planet Labs, Umbra, and HawkEye 360; GPS; miniature CubeSats for education and research; and military/defense satellites.

Loading next visibility...
Identifier
61979, 2024-210W
Orbit
LEO
Country
Flag of USUS
Related business
Manufacturer
SpaceX/Seattle
Mission
Operational Commercial Communications
Bus & Motor
STARLINK V2M, Unknown motor
Mass
730 kg wet, ~700 kg dry
Launch date (UTC)
2024-11-14 (2 years ago)
Launch vehicle
FALCON 9
Launch site
Air Force Eastern Test Range (AFETR)
Object type
Payload
Rocket body
Debris
Shape & HBR
Box + 2 Pan, 17.7 m
Radar Cross Section
33.884 m², Large (>1 m²)

Expand to show TLE details & history
Last TLE update: 23 hours ago

TLE from 23 hours ago
0 STARLINK-32578
1 61979U 24210W   26170.89769253  .00015928  00000-0  58668-3 0  9997
2 61979  43.0015 322.4097 0001811 266.3901  93.6744 15.27602166 90550
Epoch: 2026-06-19T21:32Z
TLE epoch observation values (Epoch: 2026-06-19T21:32:40.634Z)
Latitude
0.00001°
Longitude
91.12033°
Altitude
482.838 km
Speed
7.626 km/s
True Right ascension
21h 29m 38s
True Declination
0° 00' 00"
Sunlit
Object was in full shadow at epoch
Visualization orbit readout
Latitude
Unknown
Longitude
Unknown
Altitude
Unknown
Speed
Unknown
Apparent Right ascension
Unknown
Apparent Declination
Unknown
Sunlit
N/A
Visualization observer readout
Local Sidereal Time
07:15:45
Azimuth
Unknown
Elevation
Unknown
Doppler factor
Unknown
Orbital elements
Apogee altitude
486.171 km
Perigee altitude
483.685 km
Semi-major axis
6,863.065 km
Eccentricity
0.00018
Inclination
43.0015°
RAAN
322.4097°
Arg. of periapsis
266.3901°
True anomaly
93.69511°
Mean anomaly
93.6744°
Eccentric anomaly
93.68475°
Mean motion
3.81739 °/min
Orbital period
94.31 mins
BSTAR
0.00058668
Loading maneuver chart data...
Computing Atmospheric mass density...
Loading historical data...
Loading historical data...
Loading historical data...
Loading historical data...
Loading historical data...
Loading historical data...
Loading historical data...

Documentation

Showing up to 5 results
|